Orbital Elements at Epoch 2459000.5 (2020-May-31.0) TDB
Reference: JPL 12 (heliocentric ecliptic J2000)
Element | Value | Uncertainty (1-sigma) | Units |
e | .1583093471059378 | 4.8186e-08 | |
a | 2.367974728095796 | 1.8342e-08 | au |
q | 1.99310219492759 | 1.1756e-07 | au |
i | 2.435630034102231 | 5.2178e-06 | deg |
node | 96.7055743148746 | 0.00015216 | deg |
peri | 338.7600100176755 | 0.00015402 | deg |
M | 154.9285096706716 | 2.8124e-05 | deg |
tp | 2458427.713380683257 (2018-Nov-05.21338068) | 9.9305e-05 | TDB |
period | 1330.956990371554 3.64 | 1.5465e-05 4.234e-08 | d yr |
n | .2704820686200394 | 3.1428e-09 | deg/d |
Q | 2.742847261264002 | 2.1246e-08 | au |
|
| | Orbit Determination Parameters
Additional Information
|